Regional Weather Roundup
Issued by NWS

Home | Current Version | Previous Version | Text Only | Print | Product List | Glossary Off
Versions: 1 2 3 4 5 6 7 8 9 10 11 12 13 14 15 16 17 18 19 20 21 22 23 24 25 26 27 28 29 30 31 32 33 34 35 36 37 38 39 40 41 42 43 44 45 46 47 48

000
ASUS45 KBOU 152107
RWRCO

WEATHER ROUNDUP FOR COLORADO
NATIONAL WEATHER SERVICE DENVER/BOULDER CO
300 PM MDT MON SEP 15 2014

NOTE: "FAIR" INDICATES FEW OR NO CLOUDS BELOW 12000 FEET WITH NO
SIGNIFICANT WEATHER AND/OR OBSTRUCTIONS TO VISIBILITY.

COZ001>005-013-030-031-152200-
...NORTHWEST COLORADO...

CITY           SKY/WX    TMP DP  RH WIND       PRES   REMARKS
CRAIG          SUNNY     82  35  18 VRB3      30.23F
HAYDEN         MOSUNNY   79  28  15 W10       30.26F
MEEKER         MOSUNNY   76  39  26 SE13      30.26F
MOUNT WERNER   NOT AVBL
STEAMBOAT SPGS MOSUNNY   77  32  19 SW8       30.28F
WALDEN         CLOUDY    70  30  23 NW3       30.38F
$$

COZ006>008-011-152200-
...WEST CENTRAL VALLEYS...

CITY           SKY/WX    TMP DP  RH WIND       PRES   REMARKS
GRAND JUNCTION MOSUNNY   85  37  18 VRB3      30.14F
MONTROSE       MOSUNNY   86  33  15 N10       30.21F
EAGLE          MOSUNNY   79  36  21 CALM      30.26F
RIFLE          PTSUNNY   85  36  17 N8        30.19F
DELTA          MOSUNNY   89  34  14 SW3       30.16F
NUCLA          MOSUNNY   82  32  16 CALM      30.25F
$$

COZ017>023-064>068-152200-
...SOUTHWEST COLORADO...

CITY           SKY/WX    TMP DP  RH WIND       PRES   REMARKS
DURANGO        MOSUNNY   83  34  17 SE8G16    30.24F
CORTEZ         MOSUNNY   82  35  18 SW5       30.21F
PAGOSA SPRINGS MOSUNNY   79  23  12 SW7       30.32F
TELLURIDE      NOT AVBL
WOLF CREEK PAS MOSUNNY   54  32  43 SW3G16    30.64F
$$

COZ009-010-012-014-032>034-037-058>063-152200-
...CENTRAL COLORADO...

CITY           SKY/WX    TMP DP  RH WIND       PRES   REMARKS
ASPEN          PTSUNNY   72  31  22 N12G17    30.35S
BUENA VISTA    PTSUNNY   75  24  14 E7        30.35F
COPPER MTN     MOSUNNY   59  23  25 W10G18    30.67S
BERTHOUD PASS  PTSUNNY   46  46 100 N6        30.70F
COTTONWOOD PAS PTSUNNY   70  21  16 E3        30.50F
GUNNISON       MOSUNNY   73  27  17 NW5       30.36F
KREMMLING      LGT RAIN  73  30  20 CALM      30.33F
LEADVILLE      MOSUNNY   63  25  23 W9        30.48F
MONARCH PASS   CLOUDY    55  27  33 CALM      30.76F
SALIDA         PTSUNNY   72  39  30 E12G22    30.39F
SUNLIGHT       HVY RAIN  52  43  71 SW3       30.61S
WILKERSON PASS NOT AVBL
$$

COZ069>075-152200-
...SAN LUIS VALLEY/SANGRE DE CRISTO MOUNTAINS...

CITY           SKY/WX    TMP DP  RH WIND       PRES   REMARKS
ALAMOSA        MOSUNNY   76  34  21 VRB3      30.33F
LA VETA PASS   NOT AVBL
SAGUACHE       NOT AVBL
$$

COZ035-036-038>040-152200-
...NORTHERN COLORADO FRONT RANGE...

CITY           SKY/WX    TMP DP  RH WIND       PRES   REMARKS
DENVER INTL AP MOSUNNY   70  49  47 SE7       30.27F
DMNS CITY PARK   N/A     75  42  30 SE3       30.26F
AURORA         MOSUNNY   73  44  36 SE7       30.28F
FRONT RANGE AP NOT AVBL
ERIE MUNI ARPT MOSUNNY   71  38  30 SW3       30.27F
BOULDER MUN AP MOSUNNY   70  43  37 E5        30.28F
CENTENNIAL     MOSUNNY   73  44  35 SE6       30.28F
BROOMFIELD     MOSUNNY   68  39  34 CALM      30.29F
FORT COLLINS   MOSUNNY   70  43  37 SE10      30.28F
LONGMONT       MOSUNNY   69  41  36 S3        30.29F
$$

COZ041-046-047-076>085-087-088-152200-
...PIKES PEAK/PALMER DIVIDE AND SOUTHERN FOOTHILLS...

CITY           SKY/WX    TMP DP  RH WIND       PRES   REMARKS
COLO. SPRINGS  MOSUNNY   68  48  48 SE14      30.35F
A. F. ACADEMY  MOSUNNY   67  48  51 SE14G22   30.35F
ELLICOTT       NOT AVBL
FALCON         SUNNY     67  47  49 S14       30.38F
FORT CARSON    MOSUNNY   68  50  52 SE14G21   30.32F
LIMON          MOSUNNY   65  50  58 SE10      30.31F
MONUMENT HILL  MOSUNNY   68  46  45 S15G22    30.36S
TRINIDAD       CLOUDY    62  51  67 E6        30.35F
$$

COZ042>045-048>051-090-091-152200-
...NORTHEAST COLORADO...

CITY           SKY/WX    TMP DP  RH WIND       PRES   REMARKS
GREELEY ARPT   SUNNY     72  46  40 S13       30.27F
AKRON          SUNNY     64  47  53 S12G25    30.30F
BURLINGTON     CLOUDY    58  50  75 NW3       30.32F
WRAY           SUNNY     68  45  42 E3        30.29F
STERLING       SUNNY     72  48  43 SE7       30.26F
HOLYOKE        SUNNY     68  43  40 E5        30.29F
FORT MORGAN    SUNNY     67  46  45 SE13G18   30.28F
$$

COZ086-089-092>099-152200-
...SOUTHEAST COLORADO...

CITY           SKY/WX    TMP DP  RH WIND       PRES   REMARKS
PUEBLO         PTSUNNY   69  51  52 SE6       30.29F
LA JUNTA       CLOUDY    65  53  65 E8        30.30F
LAMAR          CLOUDY    63  52  67 NE12      30.28F
SPRINGFIELD      N/A     60  53  77 N15       30.28F
$$



USA.gov is the U.S. government's official web portal to all federal, state and local government web resources and services.